Location: Hillern
(53.0557°N, 9.8577°E)
Time: 18:38:10
(UTC+00:00)

Cosmos 1766 Rocket - Pass Details

Date: 19 May 2025
Orbit: 598 x 627 km, 82.5° (Epoch: 20 June)

Event Time Altitude Azimuth Distance (km) Brightness Sun altitude
Rises 21:53:02 0° 346° (NNW) 2,912 8.9 -14.7°
Reaches altitude 10° 21:55:18 10° 343° (NNW) 1,996 7.6 -14.8°
Maximum altitude 21:59:39 60° 264° (W) 708 3.9 -15.1°
Enters shadow 22:02:16 23° 191° (S) 1,324 4.7 -15.2°
